Wetbulb
56.16 56.57 56.04 54.68 53.11 51.75 54.98 58.59 54.84 64.20 63.54 54.79 55.78 53.27 55.24 50.60 55.66 56.42 54.19 53.81 52.50 51.97 52.48 51.62 52.22 52.88 54.52 57.17 56.54 52.89 55.08 52.24 48.74 50.29 54.71 54.80 53.59 52.13 51.50 48.52 47.73 49.63 50.21 49.43
55.80 55.84 55.41 54.05 52.69 52.53 53.30 54.80 56.94 63.57 62.10 50.63 53.25 56.68 55.90 55.18 54.82 54.45 53.42 52.80 54.03 53.92 51.66 49.87 52.10 53.03 56.46 56.54 56.01 54.03 55.48 51.58 47.23 48.58 51.96 54.01 51.59 52.44 52.82 51.85 52.07 50.76 47.80 49.35
54.95 54.73 55.06 53.80 52.49 52.59 54.12 55.25 53.36 57.91 59.75 58.02 53.97 53.16 54.04 53.76 56.98 54.81 55.10 54.79 55.56 53.83 52.02 52.93 51.12 51.97 54.60 55.88 55.82 61.30 59.00 52.33 50.50 46.34 49.94 52.76 50.87 51.25 52.41 52.04 49.12 49.56 49.60 52.12
54.18 54.37 54.48 53.72 52.26 52.06 54.35 57.02 55.20 56.83 52.87 54.57 55.07 56.54 54.70 52.76 52.39 56.09 56.33 53.89 53.59 52.86 50.98 51.76 51.22 52.75 53.48 55.43 58.47 56.42 54.46 50.09 51.83 52.33 52.64 52.60 52.55 52.04 52.52 50.54 51.78 49.88 51.52 52.81
53.20 53.77 54.05 53.55 52.51 51.87 56.05 54.78 53.36 55.22 53.65 54.68 52.80 50.55 51.13 50.34 51.94 53.96 52.75 52.94 54.13 54.34 52.58 53.24 51.55 53.84 54.79 53.12 54.84 54.51 54.95 51.17 52.02 50.15 52.50 52.53 51.29 52.14 53.12 52.40 51.83 52.20 53.36 52.94
52.67 52.99 53.79 53.72 52.78 52.29 56.59 58.19 57.60 54.92 50.96 51.80 50.67 51.33 51.86 51.37 52.60 53.92 54.55 53.97 53.34 52.13 53.73 55.44 56.51 57.08 57.20 56.73 55.47 54.52 54.70 52.58 51.89 47.87 51.39 51.20 48.54 51.91 53.19 53.75 52.96 52.97 51.30 55.43
52.44 52.88 53.76 53.71 53.18 52.41 55.04 56.01 54.79 50.89 48.14 50.85 50.90 51.69 52.42 51.46 51.98 51.27 53.43 54.52 52.69 55.08 57.79 56.59 55.81 55.23 54.94 55.53 55.95 56.32 54.71 54.32 53.09 49.84 51.33 43.82 51.99 56.62 55.80 54.65 54.70 55.62 55.45 57.31
52.71 53.18 53.54 54.11 53.65 52.98 53.55 55.90 54.12 51.50 47.63 50.65 50.65 51.01 50.87 51.77 52.36 51.29 51.90 53.15 54.62 55.83 53.40 49.70 47.75 48.13 49.80 51.04 53.52 54.63 55.86 53.77 49.82 47.58 48.14 50.90 52.83 54.43 54.13 54.16 53.15 57.01 55.99 56.66
52.97 53.15 53.26 53.84 53.99 53.10 53.18 55.85 56.81 52.96 48.35 50.87 51.91 50.32 51.33 49.26 49.79 50.47 52.23 55.77 57.12 54.90 51.10 48.97 44.62 42.85 46.69 46.79 49.29 54.09 54.29 54.90 51.02 49.43 46.64 43.94 52.65 56.32 58.45 55.89 50.88 58.23 56.94 56.91
52.77 52.73 52.97 52.99 53.63 53.65 52.36 53.72 57.55 52.97 48.70 51.81 52.59 50.02 49.92 52.94 51.85 50.51 52.12 53.10 52.94 55.20 49.46 45.63 44.42 44.41 49.73 45.02 46.46 48.31 50.80 51.28 48.41 48.88 46.80 50.78 56.28 55.90 56.98 48.56 53.11 58.85 57.91 59.31
52.68 52.64 52.69 52.73 53.04 53.73 52.40 53.40 57.48 53.01 49.90 51.08 53.02 53.33 50.99 51.28 51.38 48.08 51.25 50.84 52.13 50.39 46.25 46.44 47.28 46.93 49.17 48.81 50.96 50.26 48.91 49.23 48.59 50.64 47.46 45.13 56.47 55.14 50.76 55.74 60.67 62.01 61.66 62.93
52.40 52.44 52.32 52.72 52.59 53.11 53.12 51.15 55.67 56.33 50.83 50.94 55.16 55.25 55.99 55.10 54.91 52.54 53.05 51.17 51.18 51.84 50.83 51.65 51.51 49.20 50.94 50.55 46.39 54.95 49.53 53.37 51.06 52.40 51.62 55.16 56.28 55.42 56.42 58.09 62.57 61.89 62.60 62.85
52.23 52.27 52.05 52.46 52.82 52.72 52.37 51.36 53.35 53.49 50.30 50.98 52.69 52.48 56.75 58.20 57.01 56.95 49.19 52.25 53.89 52.73 55.70 51.86 51.91 48.19 51.89 46.74 49.55 49.46 53.39 55.00 51.50 51.53 57.27 57.34 58.11 58.99 61.04 61.71 62.62 63.90 63.00 62.02
52.03 52.07 51.95 52.23 52.35 53.25 52.98 51.00 53.95 54.54 50.56 45.30 50.10 57.26 55.50 58.01 57.97 57.20 56.02 54.01 55.16 55.46 54.51 49.94 48.87 47.12 53.33 49.85 51.73 51.12 51.80 53.58 51.89 52.89 57.75 58.47 59.67 60.93 61.31 60.95 63.21 63.70 65.24 63.53
51.83 52.07 51.90 51.91 52.28 53.55 53.11 53.21 54.59 54.08 49.95 44.87 46.87 52.51 55.22 57.34 57.36 56.29 56.68 55.32 53.64 51.43 49.50 48.50 46.99 50.86 51.43 52.38 51.47 49.32 54.89 52.87 49.53 50.59 54.91 57.59 59.50 59.47 60.77 60.59 63.43 65.05 64.79 63.42
52.08 51.42 51.57 51.98 52.42 53.43 50.92 49.11 55.22 55.30 57.55 46.00 42.93 53.19 54.41 55.60 57.22 56.73 54.82 55.65 54.15 52.20 49.51 49.11 51.06 53.36 51.13 47.68 47.18 53.85 55.95 56.60 56.41 54.75 57.04 57.11 61.53 63.08 63.47 64.21 64.52 64.66 64.75 65.31
51.25 51.37 51.69 52.06 52.39 52.33 48.35 47.45 51.38 53.31 55.72 45.70 43.38 45.78 53.30 55.62 56.06 55.72 54.68 55.25 54.12 52.88 50.02 48.79 50.51 51.41 52.28 49.79 46.62 52.78 54.75 55.75 56.12 56.94 57.12 56.26 60.71 61.84 63.92 65.26 65.14 64.20 65.40 65.53
51.05 51.08 51.36 52.12 52.43 51.51 50.03 54.11 52.47 53.22 49.36 47.10 43.09 46.75 50.24 54.26 51.99 51.23 54.80 51.55 52.56 52.43 51.09 51.40 50.24 54.82 52.72 47.79 52.88 54.68 55.94 56.37 56.16 56.60 57.27 58.14 62.72 63.54 64.37 65.66 65.12 63.83 63.74 64.38
51.12 51.30 51.70 51.61 51.12 49.95 53.75 55.45 54.89 55.07 48.74 44.14 46.94 44.76 44.19 54.22 52.93 52.93 52.86 52.93 47.76 53.35 49.65 49.69 53.11 50.14 47.55 51.51 53.55 54.46 55.79 54.86 54.90 56.86 56.27 58.23 60.17 61.87 64.52 64.46 63.84 63.25 63.33 64.24
51.16 50.58 48.60 47.24 53.17 56.70 56.47 52.40 49.60 48.02 50.68 49.74 46.29 50.21 45.39 51.16 51.79 50.96 50.04 50.91 48.18 46.73 50.73 54.86 49.78 49.01 55.10 55.61 56.10 57.21 57.30 56.73 57.06 53.16 53.39 55.18 58.85 62.23 63.06 63.81 63.94 63.48 64.05 65.11
50.36 48.54 47.71 55.45 55.33 54.33 51.22 46.97 45.02 47.86 45.19 48.80 49.92 49.60 47.36 52.99 47.79 48.79 51.84 48.44 48.66 43.42 49.25 49.34 47.90 48.65 53.81 56.26 57.58 58.68 57.83 58.52 58.59 57.44 56.29 56.71 55.61 64.35 64.31 63.31 63.57 64.70 65.15 65.30
50.43 49.59 52.88 53.87 51.65 50.01 45.50 43.40 48.27 47.24 44.99 50.78 49.12 50.58 52.46 52.01 53.64 49.69 50.43 46.60 45.89 42.02 51.97 47.97 45.48 51.16 54.27 56.56 56.91 59.38 59.98 58.73 59.31 59.89 57.53 56.13 57.26 58.39 64.84 64.70 64.27 64.68 65.28 66.07
52.93 49.91 47.70 48.14 48.46 39.22 41.14 40.66 44.78 45.98 49.09 51.26 50.89 47.68 51.58 53.48 53.23 50.23 49.57 45.93 44.51 51.83 47.41 45.76 47.89 53.60 55.64 57.10 57.53 58.89 60.05 60.36 60.38 60.84 60.71 59.39 60.57 64.31 64.36 64.29 64.69 64.63 65.33 65.67
46.97 45.13 38.01 43.15 41.50 44.00 45.74 47.37 47.87 51.10 51.84 51.89 51.25 50.09 50.55 53.20 50.16 49.41 45.21 48.37 50.50 45.49 43.06 44.41 51.24 53.84 55.37 56.66 58.98 59.53 59.72 60.70 60.95 60.82 61.24 61.11 61.78 63.56 64.34 64.77 65.81 65.09 65.15 65.77
45.36 46.10 39.05 42.97 46.98 49.04 49.21 51.87 52.19 53.74 54.16 51.42 48.91 49.07 51.43 49.35 48.10 50.66 48.34 46.33 44.50 46.58 45.67 49.65 51.77 55.31 55.50 56.34 58.25 59.16 60.46 60.86 61.66 61.12 60.79 61.00 61.77 63.00 61.77 60.50 65.16 66.13 65.84 65.72
46.40 46.51 43.95 46.98 45.82 47.48 49.16 50.88 51.44 53.89 52.45 52.10 48.54 46.66 46.89 46.07 47.66 45.42 45.33 45.07 43.70 47.59 51.75 53.70 55.23 54.32 55.02 57.33 58.55 59.46 60.69 61.85 61.65 60.78 61.48 61.39 61.93 61.76 60.26 60.09 63.62 66.61 66.62 66.52
45.54 44.61 48.82 47.60 47.49 47.19 49.16 50.26 51.54 54.62 51.95 45.74 47.23 43.73 44.59 50.40 47.18 45.77 48.57 46.97 50.50 52.89 54.65 55.82 57.73 58.18 56.88 57.59 57.73 58.15 60.43 61.55 58.53 59.10 62.61 63.30 63.50 63.61 64.67 64.06 64.86 65.05 67.98 68.82
MSLP
1019.70 1019.04 1018.36 1017.70 1016.90 1015.32 1012.48 1010.21 1006.11 1005.05 1005.44 1005.48 1004.10 1002.75 1001.35 1000.93 999.87 999.67 1000.17 1000.18 999.45 998.55 997.55 996.72 995.98 995.23 994.87 994.85 995.08 995.49 995.87 996.19 996.03 995.60 994.89 995.31 995.37 995.37 995.80 995.65 995.75 995.70 995.94 995.65
1019.78 1019.19 1018.58 1018.01 1017.46 1017.10 1015.50 1010.88 1006.30 1004.24 1004.85 1004.05 1002.64 1001.24 1000.52 1000.62 1000.61 1000.44 1000.23 999.95 999.88 999.44 998.85 998.24 997.47 996.48 995.58 995.79 995.45 996.15 996.24 995.86 996.10 995.70 994.95 994.51 994.97 995.23 995.08 995.23 994.93 994.88 995.41 995.52
1019.86 1019.32 1018.74 1018.13 1017.60 1017.32 1016.28 1011.35 1005.94 1003.72 1003.98 1003.98 1003.32 1002.28 1001.28 1000.59 1000.67 1001.04 1000.90 1000.59 1000.31 1000.06 999.44 999.05 998.65 997.84 996.83 996.74 996.64 997.44 997.33 996.88 996.40 995.61 994.62 994.51 994.55 994.75 994.65 994.55 994.28 994.36 994.78 995.35
1019.96 1019.40 1018.81 1018.17 1017.44 1016.87 1016.33 1011.17 1006.64 1005.27 1004.16 1003.27 1003.29 1002.71 1002.31 1001.62 1001.20 1000.75 1001.34 1001.14 1001.12 1000.83 1000.27 999.90 999.46 999.03 998.14 997.46 997.73 997.84 998.04 997.64 997.30 996.22 995.17 995.06 995.42 994.38 994.68 994.49 994.26 994.20 994.33 995.66
1020.06 1019.55 1018.95 1018.28 1017.47 1016.28 1014.61 1011.04 1009.01 1007.70 1006.57 1005.38 1004.53 1003.69 1003.19 1002.69 1002.09 1001.51 1001.21 1001.50 1001.24 1001.00 1000.74 1000.55 1000.08 999.69 999.49 998.71 998.08 998.03 998.28 998.02 998.00 997.05 996.08 995.35 994.91 995.03 994.99 993.95 994.10 993.88 994.38 995.61
1020.14 1019.67 1019.11 1018.53 1017.87 1016.95 1013.69 1011.63 1011.27 1009.83 1007.76 1006.22 1004.80 1003.56 1002.90 1002.49 1002.21 1002.08 1002.01 1002.14 1002.32 1001.97 1001.81 1001.75 1001.48 1001.21 1001.02 1000.46 999.71 998.72 998.65 998.24 998.22 997.18 996.76 996.03 994.90 994.73 994.71 993.96 993.57 993.42 993.58 995.04
1020.15 1019.71 1019.25 1018.77 1018.39 1018.25 1016.59 1014.10 1013.06 1011.07 1008.57 1006.97 1005.31 1004.12 1003.57 1003.42 1003.26 1003.29 1003.10 1002.75 1002.74 1002.82 1002.68 1002.86 1002.48 1001.87 1001.49 1001.09 1000.56 999.94 999.51 999.43 999.09 998.00 997.08 995.62 994.88 995.04 995.15 994.77 993.19 993.07 993.54 994.74
1020.19 1019.80 1019.34 1018.96 1018.61 1018.31 1017.16 1015.14 1013.75 1012.08 1009.98 1008.09 1006.59 1005.37 1004.84 1004.73 1004.45 1004.22 1004.06 1003.92 1003.84 1003.85 1003.74 1003.52 1003.01 1002.36 1001.72 1001.03 1000.70 1000.47 1000.01 1000.01 999.47 998.72 997.30 996.03 995.46 995.83 996.13 995.40 994.22 993.72 993.53 994.23
1020.11 1019.76 1019.36 1019.01 1018.64 1018.35 1017.50 1015.29 1014.60 1013.62 1011.76 1007.92 1008.11 1007.29 1006.67 1005.86 1005.09 1004.42 1003.56 1003.23 1003.28 1003.78 1003.87 1003.35 1002.87 1002.22 1001.57 1000.24 999.86 999.92 1000.03 1000.18 1000.04 999.28 997.89 996.43 996.38 996.68 996.29 996.55 994.66 993.93 993.98 994.53
1020.04 1019.71 1019.41 1019.05 1018.69 1018.39 1017.96 1015.88 1015.07 1014.36 1012.30 1009.94 1009.24 1008.10 1007.66 1007.20 1006.39 1005.40 1004.55 1004.05 1004.24 1003.91 1004.03 1003.77 1003.14 1002.10 1001.39 1000.46 999.54 999.97 999.11 999.37 998.92 998.78 998.70 998.00 998.94 999.33 997.75 997.98 995.57 993.77 994.14 994.90
1019.89 1019.66 1019.36 1019.08 1018.75 1018.47 1017.92 1015.93 1015.13 1014.99 1013.63 1011.32 1010.43 1009.73 1009.03 1008.36 1007.74 1006.86 1005.75 1005.65 1004.90 1004.41 1004.34 1004.10 1003.61 1002.52 1001.41 1000.83 999.85 999.79 1000.24 998.66 998.44 998.56 998.95 999.31 1000.08 1000.76 1001.36 998.77 995.44 994.56 994.74 995.52
1019.76 1019.56 1019.28 1019.05 1018.76 1018.48 1018.25 1016.47 1016.04 1015.67 1015.11 1012.07 1011.09 1010.40 1009.77 1009.19 1008.56 1007.98 1007.19 1006.58 1006.23 1006.33 1006.13 1005.90 1005.58 1004.62 1003.36 1002.32 1001.04 1000.22 999.68 998.96 999.08 998.18 998.75 999.92 1000.25 1001.46 1001.47 1000.31 996.87 995.94 995.93 996.62
1019.50 1019.36 1019.11 1018.90 1018.68 1018.48 1018.38 1017.14 1016.12 1015.27 1014.14 1011.64 1009.50 1007.96 1007.05 1007.37 1007.72 1008.12 1007.80 1006.96 1006.46 1006.27 1006.71 1006.36 1006.54 1005.85 1004.46 1003.78 1002.57 1003.29 1002.75 1001.51 1000.92 1000.92 998.04 999.69 1000.36 1000.98 1000.83 997.75 996.44 996.53 996.71 997.23
1019.28 1019.16 1018.99 1018.73 1018.48 1018.31 1018.15 1016.92 1015.85 1015.91 1014.71 1012.43 1008.20 1006.90 1006.90 1006.80 1006.61 1006.70 1007.16 1007.29 1007.16 1006.91 1006.97 1007.02 1006.75 1006.27 1004.85 1004.14 1003.75 1003.83 1004.28 1004.36 1003.36 1002.42 1000.21 999.36 999.59 999.75 999.50 998.40 996.85 996.88 997.20 997.84
1019.11 1018.91 1018.78 1018.60 1018.32 1018.02 1017.48 1016.43 1015.45 1015.51 1015.60 1013.16 1010.56 1008.96 1007.12 1007.00 1006.66 1006.48 1006.38 1006.77 1007.13 1007.23 1007.05 1006.95 1006.69 1006.23 1005.22 1004.13 1003.47 1002.94 1003.35 1004.56 1004.93 1003.95 1002.92 1001.47 999.39 999.89 999.51 999.24 997.33 997.80 997.95 998.49
1018.80 1018.62 1018.56 1018.37 1018.12 1017.82 1016.98 1015.48 1015.16 1015.32 1015.39 1015.15 1012.17 1008.60 1007.00 1007.12 1006.92 1006.88 1006.90 1006.20 1006.48 1006.87 1006.74 1006.45 1006.45 1006.31 1005.97 1004.98 1003.52 1002.78 1003.62 1004.30 1004.70 1004.50 1003.50 1001.86 998.35 998.05 998.83 998.33 998.21 998.51 998.54 999.15
1018.54 1018.40 1018.27 1018.12 1017.95 1017.48 1016.83 1016.75 1016.57 1016.25 1015.59 1015.54 1013.04 1009.40 1007.63 1007.29 1007.16 1006.81 1006.25 1005.86 1006.16 1007.14 1007.46 1007.14 1006.63 1005.93 1005.84 1005.09 1003.90 1003.16 1003.56 1002.66 1003.26 1003.40 1003.89 1001.22 998.34 997.60 997.53 997.44 997.84 998.44 998.70 999.50
1018.33 1018.19 1018.00 1017.81 1017.58 1017.22 1016.24 1014.72 1015.44 1016.25 1015.92 1015.48 1013.14 1009.15 1007.94 1008.56 1007.73 1007.64 1007.54 1007.18 1007.45 1007.28 1007.00 1006.60 1006.10 1005.72 1005.48 1004.17 1003.17 1002.57 1002.87 1003.00 1002.77 1002.93 1003.53 1002.35 999.37 998.00 997.64 997.46 997.98 998.28 998.83 999.66
1018.08 1017.85 1017.61 1017.10 1016.65 1015.53 1014.55 1014.80 1015.13 1015.47 1015.85 1014.38 1011.80 1009.28 1008.43 1008.09 1008.21 1008.38 1008.49 1008.41 1007.87 1006.83 1006.48 1005.84 1005.64 1004.64 1003.74 1002.94 1003.05 1002.87 1002.38 1002.86 1002.52 1002.65 1002.41 1001.30 999.70 997.88 997.28 997.67 997.87 997.92 999.01 999.76
1017.81 1017.49 1016.52 1015.42 1014.52 1014.56 1014.73 1015.29 1014.97 1014.97 1014.26 1013.19 1010.50 1008.78 1007.95 1007.61 1007.84 1008.11 1008.79 1008.74 1008.16 1006.75 1005.50 1004.77 1004.66 1003.41 1002.85 1002.80 1002.95 1002.63 1001.94 1001.86 1002.23 1002.82 1001.44 1001.72 1000.26 997.52 998.36 997.66 997.97 997.67 999.00 1000.00
1016.97 1016.47 1015.22 1014.26 1014.27 1014.00 1013.90 1013.73 1013.67 1012.50 1011.74 1010.59 1008.77 1008.08 1007.64 1007.30 1007.52 1008.00 1008.19 1008.19 1007.94 1006.83 1004.73 1004.60 1003.98 1002.98 1003.21 1003.15 1002.35 1001.04 1001.51 1001.80 1002.31 1002.40 1002.51 1001.47 1000.60 997.53 997.57 997.24 997.33 998.04 999.17 1000.10
1017.24 1017.13 1015.41 1014.05 1013.23 1012.92 1012.74 1012.27 1010.94 1010.42 1009.45 1009.02 1008.79 1008.68 1008.30 1007.82 1007.84 1007.41 1007.90 1007.69 1008.05 1006.45 1005.46 1004.84 1003.63 1004.04 1003.84 1003.16 1002.25 1001.24 1000.65 1000.57 1000.65 1000.93 1001.99 1002.38 999.81 998.89 997.17 997.13 997.67 998.46 999.49 1000.38
1016.13 1016.12 1014.55 1012.99 1012.01 1011.91 1011.03 1009.44 1008.99 1009.00 1009.19 1009.12 1009.13 1009.22 1008.69 1008.06 1007.39 1007.46 1006.87 1006.58 1006.09 1005.67 1004.85 1003.97 1004.42 1004.05 1003.59 1002.97 1002.30 1001.25 1000.51 999.72 999.22 998.78 999.84 1000.46 999.57 996.41 997.14 997.99 998.51 999.03 999.92 1000.71
1015.89 1014.50 1013.62 1012.13 1010.60 1009.69 1008.59 1008.60 1009.13 1009.08 1009.00 1009.17 1009.31 1009.02 1008.68 1007.87 1007.48 1006.44 1005.92 1005.02 1003.78 1003.61 1003.40 1003.60 1003.85 1003.72 1003.33 1003.08 1002.46 1001.62 1000.57 999.85 998.95 998.89 998.68 999.01 999.01 998.75 998.92 998.76 999.04 999.48 1000.10 1000.81
1015.17 1013.61 1012.18 1010.39 1009.11 1008.41 1008.28 1007.70 1008.32 1008.86 1008.96 1009.05 1008.95 1008.59 1008.11 1007.67 1007.07 1005.96 1004.92 1003.83 1003.05 1003.32 1003.79 1003.79 1004.07 1003.95 1003.68 1003.09 1002.41 1001.51 1000.43 999.54 998.63 998.32 998.59 998.64 998.92 999.34 999.46 999.33 999.13 999.75 1000.28 1000.85
1014.55 1012.84 1010.94 1009.85 1009.01 1007.76 1007.46 1007.14 1008.04 1008.46 1008.77 1009.69 1009.86 1009.00 1007.88 1007.16 1006.51 1005.29 1004.24 1003.60 1003.44 1003.60 1003.70 1003.78 1003.97 1003.80 1003.67 1003.04 1002.35 1001.53 1000.68 999.99 999.39 998.67 997.64 997.69 998.17 998.59 999.55 999.67 999.38 999.73 1000.40 1000.89
1012.38 1010.92 1009.56 1009.14 1008.55 1007.90 1007.25 1007.18 1007.76 1008.19 1008.65 1009.39 1009.44 1008.77 1007.19 1006.53 1005.37 1004.59 1004.81 1004.02 1003.72 1003.82 1003.66 1003.73 1003.75 1003.53 1003.34 1003.00 1002.45 1001.78 1001.09 1000.58 999.83 999.35 998.17 998.03 998.14 998.58 998.94 999.33 999.80 999.93 1000.25 1000.70
Wind_Speed
17 20 20 21 22 29 13 7 6 9 7 8 8 12 19 1 12 5 6 11 15 17 17 17 16 16 16 12 17 15 15 10 13 20 15 17 18 17 18 13 14 12 11 2
17 18 19 20 19 16 10 8 11 9 7 9 10 15 16 4 13 14 15 10 13 13 17 15 15 18 16 7 6 2 9 13 13 17 17 17 16 20 18 18 18 12 11 3
17 17 18 19 20 16 10 7 6 8 8 10 15 14 15 13 10 8 14 14 13 15 14 13 15 16 20 3 7 9 5 10 16 14 16 3 16 20 22 18 14 13 12 4
17 17 17 18 21 20 7 7 7 11 8 8 13 13 14 14 16 7 7 9 11 15 14 13 15 17 20 12 5 8 7 13 18 20 23 7 21 12 15 21 21 17 10 4
17 16 17 18 21 27 6 7 8 13 13 16 15 13 14 17 16 16 15 8 13 12 10 13 15 11 14 17 17 13 14 16 18 22 24 20 13 16 28 22 24 22 14 8
16 16 15 16 19 18 8 10 13 10 9 14 14 12 14 14 13 12 13 12 11 13 11 15 14 15 15 17 18 18 10 13 16 20 21 22 21 14 20 20 23 21 12 11
14 14 15 14 15 13 9 9 8 9 11 13 14 16 13 14 12 12 13 12 8 10 16 15 15 17 17 18 19 17 9 12 12 15 18 25 13 23 15 33 9 11 10 12
14 15 14 14 11 12 9 9 8 8 10 13 15 15 11 13 14 14 16 17 15 14 14 13 14 14 18 20 22 22 18 13 14 14 16 18 10 8 11 26 14 14 9 3
13 13 14 13 11 11 8 9 5 8 8 2 18 12 13 12 11 14 15 14 13 7 10 11 16 14 16 14 21 22 23 20 15 12 18 23 8 15 14 27 11 8 5 4
12 12 13 13 13 9 8 8 8 7 10 16 13 10 11 13 12 10 11 8 9 10 9 12 14 16 20 19 19 10 17 18 20 16 16 14 10 16 22 5 7 15 13 9
12 11 11 11 12 11 7 8 8 5 9 17 20 18 15 12 10 9 9 9 6 7 12 11 12 12 14 15 18 12 17 16 17 14 17 21 8 13 8 14 9 11 12 9
11 11 9 10 10 11 9 8 5 4 5 16 21 21 21 21 17 12 12 13 11 3 4 4 4 7 8 13 14 13 17 12 9 12 11 11 6 5 19 27 7 8 12 12
11 11 10 10 10 10 8 8 8 7 9 14 15 15 17 20 20 16 12 9 10 6 5 6 3 6 8 5 9 3 14 15 5 16 17 20 20 21 27 14 11 10 14 10
11 12 10 10 11 11 10 8 7 3 6 7 6 9 11 6 9 11 13 14 13 10 4 5 6 7 9 6 11 4 5 11 6 14 21 17 11 10 9 14 13 11 14 10
11 11 11 10 11 11 10 8 9 6 4 7 12 22 18 9 6 9 13 11 10 8 10 7 8 11 10 10 12 10 4 3 2 6 22 21 15 9 10 27 12 9 11 11
12 9 9 10 11 11 6 3 4 4 1 2 6 9 9 5 4 8 12 10 10 8 10 4 7 16 11 8 10 10 7 6 5 11 17 25 10 11 31 11 11 11 12 12
9 9 9 9 10 8 4 3 1 7 3 1 6 5 1 4 2 4 7 7 3 1 4 7 11 12 4 9 13 17 6 4 9 9 16 19 12 6 10 13 14 10 14 11
10 11 11 10 11 13 8 8 15 6 4 2 5 6 1 7 0 2 6 2 3 5 6 6 8 4 5 6 10 8 2 6 9 9 18 22 24 10 10 13 14 13 13 12
10 12 12 8 6 4 1 7 12 7 4 4 5 4 3 6 2 2 1 3 3 5 5 9 6 6 8 6 8 12 12 9 11 10 19 24 25 3 7 12 15 15 13 13
9 7 3 4 2 12 9 2 4 5 4 6 8 9 4 4 1 2 2 1 4 4 7 3 5 13 16 7 11 14 13 12 8 6 19 20 30 25 24 14 13 13 13 12
3 3 3 1 7 4 3 3 4 6 5 6 8 5 5 4 2 2 2 1 2 5 2 5 3 4 3 8 15 5 5 10 8 12 11 14 23 11 14 16 13 14 13 11
5 6 7 5 4 5 3 4 5 7 3 1 2 2 4 3 3 4 4 3 3 6 2 3 3 4 10 10 13 14 8 14 16 23 11 7 30 29 12 13 13 14 12 12
7 4 5 3 3 1 6 4 2 2 1 1 3 3 4 3 4 5 5 5 6 3 5 2 1 5 6 10 8 14 12 16 11 10 18 25 22 8 13 10 11 13 11 10
4 4 3 5 4 6 3 6 4 2 1 2 2 3 3 2 4 4 4 6 3 4 1 3 2 9 10 9 10 10 13 16 12 13 10 9 7 1 4 12 11 12 10 11
4 4 4 6 7 6 7 6 4 1 0 3 5 5 3 2 5 4 5 5 2 5 3 4 5 9 8 10 11 11 12 12 12 13 13 11 10 6 6 11 6 11 10 10
4 7 7 7 8 6 7 1 3 3 4 3 1 4 3 5 4 3 5 7 4 4 2 3 3 6 9 10 10 11 12 11 12 12 12 10 9 8 14 15 8 12 11 10
5 5 7 7 8 6 7 4 2 3 1 1 2 4 2 5 5 1 5 4 1 2 4 4 7 9 8 8 8 11 13 11 16 19 6 7 7 8 6 5 0 6 8 8
Wind_Direction
338 346 335 339 343 338 334 297 274 128 179 224 231 242 250 301 299 305 243 268 278 291 299 289 292 288 222 241 232 234 220 247 244 260 257 208 249 221 235 243 253 269 285 278
340 341 343 342 348 2 319 290 299 154 211 251 238 266 251 245 278 274 268 269 269 277 277 284 291 292 296 348 309 26 300 217 243 262 249 209 216 244 234 245 256 250 274 175
337 340 342 338 337 345 319 276 286 192 191 245 279 288 293 301 251 242 301 307 309 294 275 264 267 278 276 148 250 31 326 261 274 249 247 298 217 218 242 255 247 243 239 211
335 342 338 337 333 332 300 248 303 349 297 314 331 329 319 306 298 234 232 272 261 271 268 259 264 265 276 267 175 275 272 261 271 277 277 230 270 250 263 244 259 267 240 156
339 340 340 340 337 331 240 291 343 342 307 300 286 273 266 273 278 275 270 239 258 284 267 281 284 311 302 289 277 212 231 253 257 269 281 282 233 243 262 219 239 256 192 254
337 341 343 347 348 338 308 5 338 308 287 290 286 278 275 280 293 275 315 293 303 293 291 343 324 314 302 296 300 301 270 255 239 248 255 261 258 243 257 262 220 234 231 188
339 341 340 345 353 353 319 316 321 293 293 295 288 303 305 318 298 301 294 300 291 286 325 321 299 289 285 276 279 284 252 278 281 273 261 248 257 246 204 291 238 259 231 131
324 330 335 339 341 344 308 312 306 303 295 303 299 301 311 298 290 272 260 266 275 284 279 278 277 270 261 256 254 252 267 253 262 263 259 262 246 257 273 294 193 262 226 149
321 326 334 337 338 341 305 301 353 285 293 327 348 329 307 291 288 286 266 246 233 267 266 263 254 254 266 260 224 232 229 240 252 246 263 248 263 292 276 346 248 247 267 226
318 320 327 337 340 342 313 296 289 280 285 272 316 294 338 326 329 315 310 316 302 221 246 256 256 256 248 254 262 270 218 217 233 224 249 261 21 3 27 303 225 212 201 140
312 314 326 335 340 345 323 306 321 300 306 292 284 297 289 287 272 267 310 319 321 261 272 258 287 286 287 277 270 249 277 212 228 220 234 237 53 49 138 259 38 62 101 106
313 309 311 325 328 342 334 278 347 331 263 292 301 288 281 275 281 290 288 290 308 318 323 328 315 307 303 293 291 320 220 257 240 216 205 129 174 110 254 281 127 95 95 86
311 305 306 319 318 321 320 295 305 295 276 280 256 251 248 223 230 241 263 272 289 300 5 321 322 273 310 305 296 50 325 0 331 354 184 143 166 170 243 266 117 121 114 121
313 313 304 316 315 317 313 282 287 273 303 284 302 24 352 305 270 219 228 255 280 288 296 306 279 278 292 276 295 300 152 313 309 289 282 118 152 153 274 310 131 114 106 114
315 305 298 304 317 315 291 262 261 258 271 315 314 303 263 356 7 307 226 220 247 252 259 233 268 287 298 289 281 276 193 125 210 278 315 315 166 136 349 286 113 116 124 119
306 301 296 309 315 319 295 265 72 348 98 299 293 352 290 326 346 302 285 252 218 236 246 278 255 248 260 285 292 338 67 347 207 254 316 305 214 155 174 184 143 139 128 124
305 305 301 302 305 293 257 327 245 326 152 236 272 271 349 307 338 258 286 225 178 289 283 249 266 272 208 265 263 284 172 224 270 296 322 307 245 179 196 155 147 153 129 129
300 298 292 293 291 277 261 231 190 163 251 197 261 266 182 335 327 309 342 142 194 205 232 248 261 268 229 252 244 257 282 199 241 278 275 273 272 219 182 156 141 153 136 141
298 299 291 276 227 229 120 85 144 191 239 281 251 284 5 225 154 270 117 323 244 251 241 234 254 234 221 237 293 282 286 243 254 259 294 291 291 106 187 143 163 150 143 144
293 274 219 237 186 119 139 147 171 192 228 225 259 269 257 272 207 121 252 69 272 248 223 208 236 252 262 308 306 282 261 275 231 260 279 309 301 150 206 157 176 140 145 151
223 239 245 327 147 224 220 199 224 192 229 211 245 254 275 346 259 239 249 224 313 275 267 202 229 262 17 316 311 259 231 230 199 216 263 318 302 173 165 159 148 136 147 145
324 288 271 256 225 226 223 250 224 212 255 16 325 314 299 296 235 262 181 230 174 254 356 258 262 14 330 331 333 327 292 232 226 197 155 62 305 293 151 138 142 140 144 141
271 216 240 243 203 332 242 243 233 180 48 358 22 335 300 284 235 249 201 236 222 205 221 219 38 297 305 330 321 317 308 304 272 272 173 175 227 356 116 129 129 132 136 137
249 236 265 241 215 247 301 348 342 300 302 318 219 251 260 251 238 251 241 258 233 241 239 75 291 350 335 323 317 308 303 289 251 248 222 209 201 150 24 139 135 131 134 141
265 279 247 238 241 280 333 304 90 86 199 341 321 302 218 252 274 245 266 244 259 26 38 5 351 335 349 333 325 317 309 300 309 211 199 187 188 128 33 357 152 131 136 142
251 235 250 260 291 310 293 328 80 335 48 77 95 270 255 225 245 265 257 320 35 22 356 321 298 286 302 318 321 319 319 328 330 316 194 183 179 163 132 217 221 137 147 154
238 241 266 253 266 309 303 336 119 163 97 323 292 283 275 292 248 321 16 338 46 295 281 285 291 297 300 313 302 322 331 2 9 330 226 180 150 171 175 146 52 180 147 157